Regional Weather Roundup
Issued by NWS

Home | Current Version | Previous Version | Graphics & Text | Print | Product List | Glossary On
Versions: 1 2 3 4 5 6 7 8 9 10 11 12 13 14 15 16 17 18 19 20 21 22 23 24 25 26 27 28 29 30 31 32 33 34 35 36 37 38 39 40 41 42 43 44 45 46 47 48 49 50
000
ASUS43 KMPX 261801
RWRMN
WEATHER ROUNDUP FOR MINNESOTA
NATIONAL WEATHER SERVICE TWIN CITIES/CHANHASSEN MN
100 PM CDT MON JUN 26 2017


NOTE: "FAIR" INDICATES FEW OR NO CLOUDS BELOW 12,000 FEET WITH NO
SIGNIFICANT WEATHER AND/OR OBSTRUCTIONS TO VISIBILITY. N/A MEANS
CURRENT SKY AND/OR WEATHER CONDITIONS ARE NOT AVAILABLE.

MNZ060>063-068>070-261900-
   Twin Cities Metro

CITY           SKY/WX    TMP DP  RH WIND       PRES   REMARKS
TWIN CITIES    MOSUNNY   68  43  40 N8G22     30.16F
6HR MIN TEMP:  54; 6HR MAX TEMP:  69;

ST PAUL        MOSUNNY   65  43  44 NW16G23   30.17F
CRYSTAL        PTSUNNY   68  40  35 N13G20    30.16F
BLAINE         MOSUNNY   66  43  42 NW13      30.16F
LAKEVILLE      PTSUNNY   64  43  45 NW9G17    30.17F
EDEN PRAIRIE   MOSUNNY   67  43  41 N13G18    30.16F
6HR MIN TEMP:  55; 6HR MAX TEMP:  69;

SOUTH ST PAUL  SUNNY     67  42  40 NW10G18   30.16F
LAKE ELMO      FAIR      64  45  48 N9G16     30.17F
$$
MNZ001>005-007-008-013>017-022>024-027-028-261900-
   Northwest Minnesota

CITY           SKY/WX    TMP DP  RH WIND       PRES   REMARKS
BEMIDJI        MOSUNNY   67  40  37 NW12G18   30.17S
HALLOCK        MOSUNNY   70  43  37 NW10      30.16F
ROSEAU         MOSUNNY   68  48  49 W14G21    30.14F
WARROAD        MOSUNNY   66  46  48 W16G22    30.13F
CROOKSTON      SUNNY     70  39  32 NW12      30.19F
FOSSTON        MOSUNNY   66  43  42 W9G18     30.19F
DETROIT LAKES  SUNNY     64  39  39 NW7       30.21F
MOORHEAD       SUNNY     70  37  30 NW7G18    30.21F
PARK RAPIDS    PTSUNNY   68  39  34 NW14      30.18F
MAHNOMEN       FAIR      64  42  43 NW6       30.19F
$$
MNZ006-009>011-018-025>026-261900-
   North Central Minnesota

CITY           SKY/WX    TMP DP  RH WIND       PRES   REMARKS
BAUDETTE       MOSUNNY   69  46  43 W16G24    30.12F
FLAG ISLAND    MOSUNNY   66  43  42 N10       30.10F
INTL FALLS     PTSUNNY   66  46  48 NW15      30.09F
6HR MIN TEMP:  48; 6HR MAX TEMP:  67;

WASKISH        PTSUNNY   66  46  48 W12       30.13F
BIG FORK       MOSUNNY   64  45  48 NW6G20    30.13F
LONGVILLE      MOSUNNY   66  45  45 W9        30.16F
GRAND RAPIDS   CLOUDY    63  43  48 NW16      30.17S
CRANE LAKE     MOSUNNY   64  43  45 N10G20    30.09F
ORR            PTSUNNY   61  45  55 NW7       30.08S
COOK           PTSUNNY   63  45  51 NW9       30.10F
WALKER         MOCLDY    64  43  46 NW14      30.17S
$$
MNZ012-019>021-037-261900-
   Northeast Minnesota

CITY           SKY/WX    TMP DP  RH WIND       PRES   REMARKS
DULUTH         PTSUNNY   65  48  54 NW10      30.10F
6HR MIN TEMP:  45; 6HR MAX TEMP:  66; 6HR PCP: TRACE;

ELY            MOSUNNY   64  45  48 W13       30.07F
HIBBING        MOSUNNY   64  45  49 NW17G26   30.11F
EVELETH        MOSUNNY   63  38  39 W13       30.12S
DULUTH HARBOR  LGT RAIN  63  48  59 W6        30.11F
TWO HARBORS    MOSUNNY   70  52  52 W13G18    30.07F
SILVER BAY     MOSUNNY   66  46  48 NW8       30.06F
GRAND MARAIS     N/A     52  46  80 W18       30.03F
G MARAIS ARPRT MOSUNNY   61  43  51 W7        30.06S
$$
MNZ029>031-032-039>041-046>048-054>057-064-261900-
   West Central Minnesota

CITY           SKY/WX    TMP DP  RH WIND       PRES   REMARKS
FERGUS FALLS   SUNNY     66  45  45 NW10      30.19F
WHEATON        MOSUNNY   66  43  42 NW3       30.24F
MORRIS         SUNNY     68  45  42 NW12      30.21F
ALEXANDRIA     SUNNY     66  42  41 N10       30.22F
ELBOW LAKE     FAIR      64  45  50 NW12      30.22F
WADENA         MOSUNNY   66  45  45 NW9       30.19F
GLENWOOD       MOSUNNY   64  43  45 NW7       30.22S
APPLETON       MOSUNNY   66  37  34 N7        30.22F
BENSON         MOSUNNY   68  43  40 NE3       30.23F
ORTONVILLE     SUNNY     66  37  34 N9        30.23F
MADISON        SUNNY     68  43  40 N5        30.22F
WILLMAR        FAIR      66  45  45 NW7       30.22F
$$
MNZ033>034-036-042>043-049>051-058-059-261900-
   Central Minnesota

CITY           SKY/WX    TMP DP  RH WIND       PRES   REMARKS
ST CLOUD       MOSUNNY   67  43  41 N14       30.18F
6HR MIN TEMP:  48; 6HR MAX TEMP:  68;

SAUK CENTRE    FAIR      66  43  43 N9        30.20F
PAYNESVILLE    MOSUNNY   68  40  37 N7G17     30.20F
AITKIN         SUNNY     64  45  48 NW8       30.15S
PINE RIVER     MOSUNNY   64  45  48 N8        30.20F
BRAINERD       MOSUNNY   66  40  38 N10       30.17F
STAPLES        MOSUNNY   66  37  34 NW10      30.19S
LONG PRAIRIE   FAIR      64  41  42 N6        30.20F
LITTLE FALLS   PTSUNNY   64  37  36 NW7       30.18F
LITCHFIELD     MOSUNNY   66  45  45 NW7       30.20F
BUFFALO        MOSUNNY   66  42  40 NW8       30.19F
MAPLE LAKE     MOSUNNY   68  47  46 NW10      30.19F
HUTCHINSON     SUNNY     67  45  44 N8G17     30.21F
$$
MNZ037-044-045-052-053-261900-
   East Central Minnesota

CITY           SKY/WX    TMP DP  RH WIND       PRES   REMARKS
PRINCETON      MOSUNNY   70  45  40 N12G17    30.17F
MORA           MOSUNNY   64  45  48 NW7G17    30.18S
CAMBRIDGE      MOSUNNY   70  48  46 NW8       30.14F
RUSH CITY      MOSUNNY   66  45  45 NW8       30.15F
MOOSE LAKE     DRIZZLE   63  45  51 N6        30.12F
HINCKLEY       FAIR      66  45  45 N3        30.14F
CLOQUET        MOSUNNY   64  45  48 NW13G18   30.12S
MCGREGOR       PTSUNNY   63  43  48 NW9G17    30.15F
$$
MNZ071>073-080-081-089-090-097-098-261900-
   Southwest Minnesota

CITY           SKY/WX    TMP DP  RH WIND       PRES   REMARKS
MONTEVIDEO     MOSUNNY   68  43  40 NE8       30.22F
GRANITE FALLS  MOSUNNY   68  41  37 N12       30.23F
CANBY          SUNNY     68  40  35 N8        30.24F
MARSHALL       MOSUNNY   65  41  41 VRB3      30.22F
REDWOOD FALLS  MOSUNNY   67  38  34 NW10      30.21F
OLIVIA         SUNNY     66  43  42 N6G16     30.20F
PIPESTONE      SUNNY     64  37  36 NE13      30.23S
WINDOM         SUNNY     66  39  37 N12G17    30.21F
WORTHINGTON    SUNNY     64  42  44 NE10      30.22F
JACKSON        MOSUNNY   64  41  42 VRB9G16   30.22S
TRACY          MOSUNNY   65  43  44 N8        30.23S
SLAYTON        MOSUNNY   62  41  47 N9        30.23F
$$
MNZ065>067-074>077-082>085-091>093-261900-
   South Central Minnesota

CITY           SKY/WX    TMP DP  RH WIND       PRES   REMARKS
MANKATO        MOSUNNY   64  41  42 N12       30.20S
NEW ULM        MOSUNNY   66  37  34 N8        30.20S
ST JAMES       SUNNY     66  41  39 NW9       30.21F
FAIRMONT       MOSUNNY   66  42  41 N10G18    30.21S
GLENCOE        MOSUNNY   66  46  48 NW13      30.18F
FARIBAULT      MOSUNNY   66  41  39 NW12      30.19S
OWATONNA       MOSUNNY   64  45  48 NW13      30.18F
WASECA         SUNNY     64  41  42 N9G17     30.20F
ALBERT LEA     MOSUNNY   64  41  42 N7G16     30.18F
$$
MNZ078>079-086>088-094>096-261900-
   Southeast Minnesota

CITY           SKY/WX    TMP DP  RH WIND       PRES   REMARKS
ROCHESTER      MOSUNNY   63  44  50 NW14      30.19S
6HR MIN TEMP:  51; 6HR MAX TEMP:  64;

RED WING       MOSUNNY   66  37  34 N8        30.15F
STANTON        PTSUNNY   66  42  42 N12G21    30.16F
DODGE CENTER   MOSUNNY   63  43  48 NW10G16   30.18F
WINONA         MOSUNNY   63  45  51 NW13      30.16S
AUSTIN         MOSUNNY   64  45  48 NW12      30.18S
PRESTON        PTSUNNY   61  43  50 N10G21    30.18S
$$
ABBREVIATIONS USED IN REMARKS
   TC - TEMPERATURES IN CELSIUS
  WCI - WIND CHILL INDEX
   HX - HEAT INDEX
  VSB - VISIBILITY
$$



USA.gov is the U.S. government's official web portal to all federal, state and local government web resources and services.